Chatham, MA

5:59 AM EDT on September 21, 2017 (GMT -0400)
Chatham Municipal

Weather History for KCQX - May, 2014

Change the Weather History Date:

Wednesday, May 7, 2014

  Actual Average Record
Temperature  
Mean Temperature 50 °F -  
Max Temperature 61 °F 57 °F 72 °F (2015)
Min Temperature 41 °F 43 °F 30 °F (2001)
Degree Days  
Heating Degree Days 14    
Moisture  
Dew Point 38 °F    
Average Humidity 60    
Maximum Humidity 86    
Minimum Humidity 38    
Precipitation  
Precipitation 0.00 in - - ()
Sea Level Pressure  
Sea Level Pressure 30.17 in    
Wind  
Wind Speed 4 mph (SW)    
Max Wind Speed 9 mph    
Max Gust Speed -    
Visibility 10 miles    
Events      
Averages and records for this station are not official NWS values.
T = Trace of Precipitation, MM = Missing Value Source: NWS Daily Summary

Daily Weather History Graph

Daily Weather History Graph

Search for Another Location

Airport or City:

Trip Planner

Search our weather history database for the weather conditions in past years. The results will help you decide how hot, cold, wet, or windy it might be!

Date:

Astronomy

May. 07, 2014 Rise Set
Actual Time 5:29 AM EDT 7:44 PM EDT
Civil Twilight 4:58 AM EDT 8:15 PM EDT
Nautical Twilight 4:20 AM EDT 8:53 PM EDT
Astronomical Twilight 3:38 AM EDT 9:35 PM EDT
Moon 12:40 PM EDT (5/7) 1:32 AM EDT (5/7)
Length of Visible Light 15h 17m
Length of Day
14h 15m
First Quarter, 55% of the Moon is Illuminated
May 7
First Quarter
May 14
Full
May 21
Last Quarter
May 28
New
Jun 5
First Quarter

Hourly Weather History & Observations

Time (EDT) Temp. Dew Point Humidity Pressure Visibility Wind Dir Wind Speed Gust Speed Precip Events Conditions
12:52 AM 48.0 °F 37.9 °F 68% 30.04 in 10.0 mi NNW 3.5 mph - N/A   Clear
1:52 AM 48.9 °F 36.0 °F 61% 30.04 in 10.0 mi Calm Calm - N/A   Clear
2:52 AM 46.0 °F 37.9 °F 73% 30.05 in 10.0 mi Calm Calm - N/A   Clear
3:52 AM 41.0 °F 37.0 °F 86% 30.07 in 10.0 mi Calm Calm - N/A   Clear
5:52 AM 44.1 °F 37.0 °F 76% 30.11 in 10.0 mi Calm Calm - N/A   Clear
6:52 AM 50.0 °F 36.0 °F 59% 30.13 in 10.0 mi Variable 4.6 mph - N/A   Clear
8:52 AM 54.0 °F 36.0 °F 51% 30.16 in 10.0 mi NNW 8.1 mph - N/A   Clear
9:52 AM 55.9 °F 37.0 °F 49% 30.17 in 10.0 mi NNW 5.8 mph - N/A   Clear
10:52 AM 57.9 °F 36.0 °F 44% 30.19 in 10.0 mi Variable 3.5 mph - N/A   Clear
11:52 AM 60.1 °F 36.0 °F 41% 30.20 in 10.0 mi Variable 4.6 mph - N/A   Clear
12:52 PM 60.1 °F 34.0 °F 38% 30.19 in 10.0 mi NE 6.9 mph - N/A   Clear
1:52 PM 59.0 °F 34.0 °F 39% 30.19 in 10.0 mi East 9.2 mph - N/A   Clear
2:52 PM 59.0 °F 37.0 °F 44% 30.20 in 10.0 mi Variable 6.9 mph - N/A   Clear
3:52 PM 57.0 °F 36.0 °F 45% 30.19 in 10.0 mi Variable 5.8 mph - N/A   Clear
4:52 PM 54.0 °F 37.0 °F 53% 30.21 in 10.0 mi SSE 9.2 mph - N/A   Clear
5:52 PM 53.1 °F 39.0 °F 59% 30.20 in 10.0 mi South 9.2 mph - N/A   Clear
6:52 PM 52.0 °F 42.1 °F 69% 30.20 in 10.0 mi Variable 5.8 mph - N/A   Clear
7:52 PM 51.1 °F 39.9 °F 66% 30.21 in 10.0 mi SW 6.9 mph - N/A   Clear
8:52 PM 50.0 °F 41.0 °F 71% 30.22 in 10.0 mi SW 8.1 mph - N/A   Clear
9:52 PM 50.0 °F 41.0 °F 71% 30.23 in 10.0 mi SW 6.9 mph - N/A   Clear
10:52 PM 50.0 °F 42.1 °F 74% 30.22 in 10.0 mi SW 6.9 mph - N/A   Clear
11:52 PM 48.9 °F 43.0 °F 80% 30.22 in 10.0 mi SW 5.8 mph - N/A   Clear